Location: Beetenbrück
(52.8113°N, 9.5946°E)
Time: 17:39:41
(UTC+00:00)

Cosmos 1980 - Pass Details

Date: 14 April 2026
Orbit: 839 x 844 km, 71.0° (Epoch: 9 May)

Event Time Altitude Azimuth Distance (km) Brightness Sun altitude
Rises 19:56:40 0° 189° (S) 3,382 6.6 -13.8°
Reaches altitude 10° 19:59:10 10° 183° (S) 2,451 5.8 -14.1°
Maximum altitude 20:04:31 47° 111° (ESE) 1,106 3.9 -14.8°
Drops below altitude 10° 20:09:54 10° 40° (NE) 2,465 6.1 -15.4°
Sets 20:12:25 0° 34° (NE) 3,404 6.9 -15.7°
